Tracking 30995 objects as of 5-Jul-2025
HD Live streaming from Space Station
objects crossing your sky now

STARLINK-5577

Track STARLINK-5577 now!
10-day predictions
STARLINK-5577 is classified as:


NORAD ID: 55751
Int'l Code: 2023-028L
Perigee: 576.8 km
Apogee: 581.6 km
Inclination: 70.0 °
Period: 96.1 minutes
Semi major axis: 6950 km
RCS: Unknown
Launch date: March 3, 2023
Source: United States (US)
Launch site: AIR FORCE WESTERN TEST RANGE (AFWTR)
Your satellite tracking list
IUS R/B(1)
Track 1 satellite(s)




NASA's NSSDC Master Catalog

Two Line Element Set (TLE):
1 55751U 23028L   25186.31553775  .00000732  00000-0  69142-4 0  9994
2 55751  69.9998 148.2639 0003441 258.8784 101.1988 14.98334026128988
Source of the keplerian elements: AFSPC